CAPE
0 0 0 0 0 0 0 0 0 0 0 0 0 0 0 0 0 0 65 76 541 821 1214 1670 1890 2185 2268 2238 2134 1899 1805 1878 1803 1721 1745 1451 1514 1557 1363 1355 1470 1310 1286 1163 1198 1162 923 866 830
3 0 0 0 0 0 0 0 0 0 0 0 0 0 0 0 0 0 24 92 445 808 1212 1270 1810 2200 2292 2364 2133 1808 1823 1839 1845 1812 1832 1745 1616 1419 1291 1318 1446 1346 1283 1237 1117 1189 1068 962 1073
0 0 0 0 0 0 0 0 0 0 0 0 0 0 0 0 0 0 42 73 428 759 1120 1081 1723 2176 2193 2213 1906 1850 1844 1810 1784 1788 1773 1797 1660 1258 1373 1299 1302 1379 1287 1268 1255 992 1087 1021 916
12 23 0 0 0 0 0 0 0 0 0 0 0 0 0 0 0 2 23 107 412 896 1088 1134 1655 2084 1955 1777 1765 1773 1924 1777 1830 1729 1712 1644 1631 1401 1276 1294 1208 1044 1117 1145 1106 978 992 844 834
0 19 10 0 0 0 0 0 0 0 0 0 0 0 0 0 0 0 107 159 345 834 1011 1170 1711 1787 1683 1657 1688 1863 1839 1765 1780 1562 1552 1564 1562 1418 1186 1147 1073 1084 1012 967 894 608 565 561 581
38 3 0 0 0 0 0 0 0 0 0 0 0 0 0 0 0 0 69 128 369 1185 1012 1127 1504 1543 1520 1520 1581 1783 1736 1669 1526 1424 1476 1445 1413 1377 1301 1141 1066 1079 1114 1032 866 508 413 437 530
20 3 0 0 0 0 0 0 0 0 0 0 0 0 0 0 0 0 66 114 1036 1283 1074 946 1056 1148 1209 1155 1368 1262 1317 1329 1310 1305 1230 789 680 946 1053 987 1058 1042 953 838 646 333 196 134 47
49 54 25 0 0 0 0 0 0 0 0 0 0 0 0 0 0 0 103 224 1075 1332 1123 905 730 630 686 962 947 870 959 1033 1034 747 339 282 266 375 570 524 616 652 598 491 329 136 33 2 0
52 39 28 3 1 0 0 0 0 0 0 0 0 0 0 6 15 58 136 787 1072 1191 1278 914 644 548 585 725 455 507 521 470 277 152 154 205 216 181 164 70 81 172 231 163 30 5 3 1 0
31 49 1 3 14 9 0 0 0 0 0 0 0 6 25 123 48 96 445 943 866 1095 1252 861 588 554 583 655 479 429 249 261 208 132 188 144 106 62 0 0 0 2 10 8 5 1 0 0 0
10 22 6 8 9 2 10 0 0 0 0 0 0 0 22 88 38 165 554 890 760 990 948 962 584 608 659 538 500 394 432 362 203 14 0 0 0 0 0 0 0 0 0 0 0 0 0 0 0
3 0 8 10 0 18 10 0 0 0 0 0 0 0 0 0 3 235 275 534 518 978 987 935 680 680 620 486 484 409 375 219 15 23 0 0 1 1 0 0 0 0 0 0 0 0 0 0 0
5 1 1 0 0 3 0 0 0 0 0 0 0 0 0 0 0 100 199 320 550 924 940 898 793 618 597 546 468 416 302 111 52 28 20 1 1 0 0 0 0 0 0 0 0 0 0 0 0
0 0 2 0 0 4 6 0 0 0 0 0 0 0 0 0 0 29 172 223 579 990 951 902 780 657 610 608 471 304 158 63 47 2 21 13 0 0 0 0 0 0 0 0 0 0 0 0 0
11 0 2 1 0 25 16 7 2 0 3 0 0 0 0 0 0 4 53 162 595 974 893 736 770 686 436 455 280 192 87 77 25 13 29 5 0 0 0 0 0 0 0 0 0 0 0 0 0
0 0 1 0 2 13 35 2 0 0 0 0 0 0 0 0 0 0 35 100 317 994 922 744 680 555 380 273 201 113 107 79 46 13 0 0 0 0 0 0 0 0 0 0 0 0 0 0 0
4 0 0 0 15 15 25 12 0 0 0 0 0 0 0 0 0 0 5 201 357 957 970 630 534 452 310 178 98 106 88 57 7 0 0 0 0 0 0 0 0 0 0 0 0 0 0 0 0
0 6 16 0 0 22 30 19 2 0 0 0 4 1 0 0 0 0 6 232 377 590 807 641 539 370 222 77 62 44 35 7 0 0 0 0 0 0 0 0 0 0 0 0 0 0 0 0 0
6 4 0 0 0 4 0 44 0 0 1 12 4 0 0 0 0 0 0 272 398 627 600 535 510 248 81 55 44 15 23 0 0 0 0 0 0 0 0 0 0 0 0 0 0 0 0 0 0
0 0 0 0 1 3 0 25 0 0 0 21 0 0 0 0 0 0 0 135 385 510 499 398 334 126 91 62 67 47 0 0 0 0 0 0 0 0 0 0 0 0 0 0 0 0 0 0 0
0 0 0 0 3 0 4 51 56 3 20 7 0 0 1 0 0 0 0 100 397 451 442 349 226 101 77 46 8 0 0 0 0 0 0 0 0 0 0 0 0 0 0 0 0 0 0 0 0
0 2 3 25 0 1 29 2 28 45 7 7 0 0 0 1 6 6 13 19 324 400 429 452 110 147 37 0 0 0 0 0 0 0 0 0 0 0 0 0 0 0 0 0 0 0 0 0 0
0 0 0 0 3 0 10 0 0 0 19 0 0 0 0 0 0 0 22 16 180 277 549 252 164 94 3 0 0 0 0 0 0 0 0 0 0 0 0 0 0 0 0 0 0 0 0 0 0
0 0 0 1 15 3 0 0 0 2 5 2 3 1 0 0 0 0 17 107 167 246 439 220 166 74 0 0 0 3 0 0 0 0 0 0 0 0 0 0 0 0 0 0 0 0 0 0 0
0 0 9 7 1 0 0 0 4 1 6 9 6 4 0 0 0 0 0 0 33 240 358 242 110 35 0 0 0 7 0 0 0 0 0 0 0 0 0 0 0 0 0 0 0 0 0 0 0
0 1 0 0 0 12 8 0 0 3 6 0 4 7 0 0 0 0 0 0 0 68 242 125 68 13 0 0 0 2 0 0 0 0 0 0 0 0 0 0 0 0 0 0 0 0 0 0 0
0 0 0 0 0 33 0 0 0 0 0 0 0 1 1 0 0 0 0 1 2 1 101 93 46 0 0 0 0 0 0 0 0 0 0 0 0 0 0 0 0 0 0 0 0 0 0 0 0
0 0 0 0 0 2 0 0 0 0 0 0 0 0 0 0 0 0 0 1 1 0 2 1 0 0 0 0 0 0 0 0 0 0 0 0 0 0 0 0 0 0 0 0 0 0 0 0 0
0 0 0 0 0 0 0 0 2 0 0 0 0 0 0 0 1 1 1 1 1 0 2 1 1 0 1 1 0 0 0 0 0 0 0 1 0 1 1 0 0 0 0 0 0 0 0 0 0
0 0 0 0 0 0 0 0 0 0 0 0 1 0 0 1 0 0 1 1 1 0 0 1 0 1 0 0 1 1 0 0 0 0 0 0 1 0 0 0 0 0 0 0 0 0 0 0 0
CIN
0 0 0 0 0 0 0 0 0 0 0 0 0 0 0 0 0 -7 -150 -101 -131 -207 -116 -28 -5 0 0 0 0 0 0 0 0 0 0 0 0 0 0 0 0 0 0 0 0 0 0 0 0
-103 0 0 0 0 0 0 0 0 0 0 0 0 0 0 0 0 0 -132 -82 -98 -177 -107 -59 -6 0 0 0 0 0 0 0 -1 0 0 0 0 0 0 0 0 0 0 0 0 0 0 0 0
0 0 0 0 0 0 0 0 0 0 0 0 0 0 0 0 0 0 -116 -96 -75 -126 -85 -66 -7 0 0 0 0 0 0 0 0 0 0 0 0 0 0 0 0 0 0 0 0 0 0 0 -2
-2 -1 0 0 0 0 0 0 0 0 0 0 0 0 0 0 0 -67 -105 -85 -66 -75 -54 -55 -3 0 0 0 0 -1 0 0 0 0 0 0 0 0 0 0 0 0 0 0 0 0 0 0 -1
0 -2 -1 0 0 0 0 0 0 0 0 0 0 0 0 0 0 0 -121 -85 -69 -54 -83 -34 0 0 0 0 -1 0 0 0 0 0 0 0 0 0 0 0 0 0 0 0 0 0 0 -2 -8
-1 -3 0 0 0 0 0 0 0 0 0 0 0 0 0 0 0 0 -139 -90 -29 -80 -79 -36 -1 -2 -6 -6 -5 -1 0 0 0 0 0 0 0 0 0 0 0 0 0 0 0 0 -2 -5 -9
-5 -1 0 0 0 0 0 0 0 0 0 0 0 0 0 0 0 0 -143 -87 -46 -62 -63 -43 -8 -6 -11 -10 -6 -8 -3 -2 -1 0 0 -12 -19 0 0 0 0 0 0 0 0 -1 -9 -25 -60
-2 -1 0 0 0 0 0 0 0 0 0 0 0 0 0 0 0 0 -124 -48 -70 -35 -34 -46 -22 -27 -21 -16 -13 -10 -5 -3 -3 -13 -72 -35 -38 -25 0 0 0 0 0 -1 -6 -34 -75 0 0
-7 -2 0 -1 0 0 0 0 0 0 0 0 0 0 0 -36 -157 -149 -98 -62 -51 -30 -20 -17 -18 -23 -19 -23 -56 -38 -34 -55 -78 -106 -84 -28 -14 -16 -30 -96 -56 -22 -13 -27 -67 0 0 0 0
-3 0 0 -3 -1 -1 0 0 0 0 0 0 0 -55 -146 -109 -149 -149 -61 -27 -38 -19 -9 -11 -16 -17 -18 -10 -15 -31 -52 -42 -56 -79 -24 -19 -65 -125 0 0 0 -38 -38 0 -43 -68 0 0 0
-3 0 -1 -13 -19 -41 -21 0 0 0 0 0 0 0 -133 -121 -106 -116 -59 -61 -85 -39 -4 -11 -19 -10 -10 -11 -2 -16 -5 -12 -27 -66 0 0 0 0 0 0 0 0 0 0 0 0 0 0 0
0 0 0 -6 0 -10 -29 -2 0 0 0 0 0 0 0 0 -12 -77 -104 -72 -47 -12 -14 -18 -10 -10 -13 -15 -5 -9 -11 -35 -212 -220 -16 0 0 0 0 0 0 0 0 0 0 0 0 0 0
-1 0 0 0 0 -30 0 0 0 0 0 0 0 0 0 0 0 -112 -129 -102 -40 -6 -14 -23 -14 -17 -19 -6 -6 -11 -34 -167 -223 -175 -179 0 0 0 0 0 0 0 0 0 0 0 0 0 0
0 0 0 0 0 0 0 -1 0 0 0 0 0 0 0 0 0 -102 -69 -69 -11 -2 -13 -27 -20 -26 -14 -6 -12 -43 -140 -225 -195 -20 -138 -93 0 0 0 0 0 0 0 0 0 0 0 0 0
-2 0 0 0 0 -1 -3 0 0 0 -42 0 0 0 0 0 0 -32 -103 -54 -18 -6 -15 -25 -19 -20 -58 -34 -64 -97 -200 -187 -191 -132 -80 -116 0 0 0 0 0 0 0 0 0 0 0 0 0
0 -1 0 0 -3 -2 -6 0 0 0 0 0 0 0 0 0 0 0 -73 -48 -23 -16 -9 -27 -12 -39 -83 -103 -136 -199 -175 -175 -166 -133 0 0 0 0 0 0 0 0 0 0 0 0 0 0 0
-6 0 0 0 -3 -26 0 -1 0 0 0 0 0 0 0 0 0 0 -25 -29 -23 -29 -17 -21 -13 -56 -81 -152 -231 -220 -217 -207 -69 0 0 0 0 0 0 0 0 0 0 0 0 0 0 0 0
0 -2 -1 0 -1 -12 -2 -2 -14 0 0 0 -62 -35 0 0 0 0 -18 -38 -23 -30 -22 -25 -9 -49 -102 -204 -245 -264 -255 -64 0 0 0 -2 0 0 0 0 0 0 0 0 0 0 0 0 0
-13 -6 0 0 0 0 0 0 0 0 -6 -3 -33 0 0 0 0 0 0 -42 -37 -27 -17 -9 -8 -61 -181 -207 -253 -311 -292 0 0 0 0 -6 0 0 0 0 0 0 0 0 0 0 0 0 0
0 0 0 0 -1 -14 -2 -11 0 0 0 -16 -15 -27 0 0 0 0 0 -49 -38 -33 -11 -21 -24 -106 -158 -228 -263 -304 -38 0 0 0 0 0 0 0 0 0 0 0 0 0 0 0 0 0 0
0 0 0 -1 0 0 0 -14 0 -35 -11 -40 -35 0 -42 0 0 0 0 -37 -44 -42 -24 -25 -35 -98 -148 -202 -240 0 0 0 0 0 0 0 0 0 0 0 0 0 0 0 0 0 0 0 0
0 -6 -1 0 -2 -2 -2 -6 -13 0 -4 -46 0 0 0 -52 -34 -22 -27 -25 -22 -40 -41 -18 -69 -50 -163 0 0 0 0 0 0 0 0 0 0 0 0 0 0 0 0 0 0 0 0 0 0
0 0 0 0 -4 0 0 0 0 -9 -14 0 0 0 0 0 0 0 -16 -26 -51 -37 -1 -31 -41 -63 -34 0 0 0 -46 -46 0 0 0 0 0 0 0 0 0 0 0 0 0 0 0 0 0
0 0 0 -1 -2 -1 0 0 0 0 0 0 0 0 0 0 0 0 -53 -36 -53 -60 -9 -27 -38 -71 0 0 0 -270 0 0 0 0 0 0 0 0 0 0 0 0 0 0 0 0 0 0 0
0 0 -4 0 -4 0 0 -2 0 0 0 0 0 0 0 0 0 0 0 0 -84 -39 -4 -10 -59 -42 0 0 0 -218 0 0 0 0 0 0 0 0 0 0 0 0 0 0 0 0 0 0 0
0 0 0 -1 0 -19 -15 0 0 0 0 0 0 0 0 0 0 0 0 0 0 -29 -8 -31 -55 -31 0 0 0 -143 0 0 0 0 0 0 0 0 0 0 0 0 0 0 0 0 0 0 0
0 0 0 0 0 -28 0 0 0 0 0 0 0 0 0 0 0 0 0 0 0 0 -36 -41 -71 0 0 0 0 0 0 0 0 0 0 0 0 0 0 0 0 0 0 0 0 0 0 0 0
-2 0 0 0 0 -18 0 0 0 0 0 0 0 0 0 0 0 0 0 0 0 0 -36 0 0 0 0 0 0 0 0 0 0 0 0 0 0 0 0 0 0 0 0 0 0 0 0 0 0
0 0 0 0 0 0 0 0 -1 0 0 0 -2 0 0 0 0 0 0 0 0 0 0 0 0 0 0 0 0 0 0 0 0 0 0 0 0 0 0 0 0 0 0 0 0 0 0 0 0
0 0 0 0 0 0 0 0 0 0 0 -1 -3 0 0 0 0 0 0 0 0 0 0 0 0 0 0 0 0 0 0 0 0 0 0 0 0 0 0 0 0 0 0 0 0 0 0 0 0
Wind_Speed
6 3 3 3 4 6 13 11 14 17 12 13 5 4 5 5 4 3 5 6 19 19 17 16 18 17 18 17 17 15 14 13 15 14 15 15 15 15 15 15 16 17 19 20 19 20 20 19 18
4 2 5 2 4 13 12 18 19 16 10 4 4 5 4 4 1 7 6 8 18 18 17 16 18 18 17 18 17 16 16 15 14 13 13 15 15 15 15 16 17 18 19 20 20 20 19 18 15
9 7 4 3 4 16 10 18 16 18 10 5 5 4 2 4 2 11 9 10 18 17 16 15 18 18 18 18 17 14 15 15 14 14 13 13 15 16 17 18 18 18 19 20 20 19 18 17 12
7 5 4 9 16 8 16 9 16 13 9 9 6 5 1 3 5 10 11 12 17 17 15 18 17 18 18 17 16 15 15 15 15 14 14 14 15 16 18 19 18 19 19 20 19 19 18 15 13
9 4 9 16 23 18 15 23 11 11 12 11 9 7 6 4 9 10 11 7 16 16 16 15 17 17 17 16 15 17 17 15 15 15 15 16 17 19 19 20 19 20 20 20 19 19 19 17 14
7 7 11 24 19 20 20 22 24 20 14 14 13 13 8 9 8 6 10 7 14 18 17 15 14 16 15 13 15 16 16 15 15 16 16 17 20 21 21 20 20 20 20 20 20 20 19 16 16
7 12 22 17 16 23 19 22 23 24 22 16 12 11 4 6 11 7 9 8 16 17 16 14 12 13 15 12 14 15 15 14 15 16 16 19 22 22 21 20 20 21 21 20 21 19 19 18 19
4 8 22 22 19 20 23 19 19 24 17 10 15 13 9 9 10 9 8 6 15 14 14 15 12 11 12 12 14 13 13 13 14 11 12 13 14 19 19 18 20 22 22 21 21 20 19 19 19
2 8 22 30 22 14 17 15 17 3 8 8 11 9 3 16 12 8 6 12 11 10 13 14 13 11 11 11 11 13 13 13 15 15 18 13 10 13 14 18 21 21 22 22 21 20 20 19 19
12 13 31 16 16 16 15 16 6 8 11 11 9 9 16 12 12 14 11 12 11 13 13 13 14 13 11 10 11 10 10 8 9 12 11 8 9 11 12 15 20 20 19 19 20 20 18 13 7
13 21 15 18 16 17 18 20 11 10 18 10 8 8 10 14 9 15 14 15 17 14 10 14 15 14 12 11 9 6 5 6 8 8 10 12 10 9 7 7 7 8 9 7 8 8 6 8 6
7 16 19 16 20 10 20 17 19 9 7 11 15 9 10 10 11 12 11 12 11 14 15 15 14 14 13 10 8 9 7 7 7 9 12 10 7 9 8 5 5 5 4 7 8 6 8 10 9
9 10 15 17 17 18 13 14 13 15 6 8 9 10 12 10 11 9 12 11 14 15 16 16 14 14 13 13 9 9 9 7 9 9 10 10 9 8 7 5 4 4 6 8 8 7 7 8 10
10 15 18 14 18 16 18 18 10 6 10 9 10 9 10 13 11 9 11 11 15 15 15 15 15 13 14 12 13 9 9 11 9 7 8 12 8 8 6 5 5 4 8 8 6 6 8 9 8
10 12 13 15 16 15 2 13 20 12 15 10 14 9 6 13 13 11 9 10 17 16 16 15 14 14 13 12 12 10 9 10 10 8 9 8 10 9 9 5 6 5 9 11 7 5 10 10 9
14 10 5 4 10 6 7 6 16 15 15 14 14 11 8 7 15 13 12 10 11 14 17 15 13 14 15 13 11 9 10 9 9 7 6 10 11 10 7 7 6 8 8 7 7 7 9 9 8
6 7 11 10 11 8 18 6 9 9 13 17 15 14 9 7 6 9 10 14 9 12 17 15 15 16 15 15 11 12 11 9 8 7 5 8 12 11 8 7 8 8 7 7 8 6 9 9 8
6 5 6 5 8 14 16 16 8 11 11 16 13 12 11 8 9 8 8 11 9 9 15 16 14 16 15 12 11 9 9 7 8 8 6 8 9 9 8 8 9 7 7 7 8 10 8 9 9
10 6 6 10 8 6 11 16 14 10 6 14 8 8 8 9 8 8 7 13 13 8 13 16 14 16 13 12 12 10 11 10 8 6 10 10 8 9 10 9 10 8 8 8 10 11 13 7 9
8 6 8 9 3 7 8 12 15 16 8 8 12 9 8 8 9 8 8 10 15 13 14 15 14 17 14 11 12 9 10 8 9 8 8 6 10 8 10 12 10 7 8 8 10 12 7 4 6
6 3 9 11 12 5 7 7 15 16 13 6 4 9 11 7 9 8 8 7 10 10 14 14 15 16 15 13 8 7 7 7 4 8 7 6 11 8 10 9 8 8 8 9 10 10 9 7 3
4 8 11 11 2 3 7 6 12 14 13 11 8 7 11 8 8 5 8 7 10 8 11 14 13 17 13 13 12 20 12 13 8 9 7 7 11 8 8 8 7 9 7 9 9 7 4 6 6
6 13 10 10 3 6 4 2 7 7 13 13 16 17 17 16 15 14 9 9 9 10 11 12 16 15 14 17 15 13 12 11 9 9 11 7 9 8 8 8 8 8 7 9 11 9 6 4 4
6 6 5 5 2 3 5 3 6 8 11 13 14 17 16 17 20 17 10 8 6 9 12 12 16 14 14 16 15 15 13 12 13 11 11 7 9 8 7 8 7 7 8 10 7 7 8 6 5
9 2 1 2 2 6 9 9 3 7 11 11 13 13 15 15 15 17 18 18 4 10 10 12 13 15 16 16 16 16 15 15 20 18 13 13 10 10 12 10 10 8 7 7 7 7 7 7 8
8 3 3 3 5 2 5 6 3 6 8 10 11 11 14 16 15 16 17 16 15 6 8 11 12 12 15 16 15 14 14 11 10 14 14 12 11 10 12 9 8 8 9 8 8 5 5 6 6
9 5 1 5 5 5 6 4 4 12 13 14 15 15 17 17 18 18 18 15 16 13 7 11 12 11 15 16 12 12 11 13 11 12 11 11 12 10 12 11 10 8 8 10 10 6 6 7 6
2 4 2 3 6 3 4 5 4 15 16 15 15 16 15 15 18 18 15 16 16 18 5 6 9 13 11 13 13 13 12 12 12 13 11 10 9 10 14 14 13 13 9 8 9 7 7 7 4
10 6 4 1 2 3 2 1 2 6 10 13 14 11 12 12 14 14 15 13 13 14 12 5 6 7 6 7 10 11 10 12 13 13 13 12 11 10 9 10 9 10 11 10 9 7 9 9 7
9 2 4 3 6 1 2 1 4 2 6 10 11 12 11 9 9 11 12 13 12 12 13 12 1 7 7 7 7 7 9 11 12 11 12 12 13 12 13 13 12 10 10 8 9 9 7 8 8
Wind_Direction
267 267 345 354 211 225 219 225 250 223 246 228 191 90 161 186 198 195 180 123 130 134 144 149 148 143 143 141 137 137 135 132 131 131 128 125 120 115 114 116 114 116 113 109 105 101 98 96 97
223 122 40 64 225 216 220 207 227 245 237 83 85 111 93 292 157 123 134 127 134 137 144 150 149 143 142 141 139 143 142 136 130 130 130 127 120 117 117 116 113 113 110 107 102 98 96 94 94
237 186 111 154 220 226 222 210 218 235 244 138 112 71 204 230 198 146 129 145 133 139 148 147 149 144 145 143 142 141 137 138 136 134 131 126 122 122 119 114 109 106 106 105 99 97 93 90 88
217 180 247 212 227 239 239 249 218 235 230 134 142 138 350 236 14 121 134 137 135 142 147 142 150 144 147 146 144 144 137 140 137 138 134 129 126 122 119 112 105 106 103 99 100 96 91 84 71
224 220 226 229 229 215 219 252 268 228 233 165 176 168 176 121 77 111 123 153 141 141 130 142 150 148 146 146 146 143 140 138 138 137 134 131 125 119 114 106 109 106 104 102 99 98 93 80 69
210 210 227 226 230 219 200 217 243 248 249 198 186 215 176 140 110 119 132 178 140 129 140 143 148 148 146 145 141 138 136 139 140 139 136 129 123 119 113 112 110 109 107 105 102 99 91 78 70
233 214 227 242 226 229 219 205 216 228 240 216 165 214 161 131 147 145 140 188 117 134 134 144 153 152 145 142 133 133 135 138 138 140 138 141 129 121 115 114 112 107 104 102 97 97 95 77 67
269 250 238 231 229 240 216 222 204 209 225 223 170 208 205 176 149 143 151 150 121 130 137 146 155 158 147 140 127 127 128 129 129 136 122 111 112 114 108 103 104 104 101 98 98 97 92 73 65
303 234 231 231 225 232 251 233 222 167 219 247 203 161 84 140 135 137 149 115 118 132 143 149 156 159 150 135 129 120 118 115 110 111 117 114 115 107 97 99 96 96 98 101 102 99 88 76 63
227 224 243 255 243 255 258 257 162 175 200 238 267 74 111 130 150 147 147 142 143 154 156 157 161 160 149 134 136 130 128 128 124 130 130 120 103 103 100 95 100 98 105 112 112 104 89 74 63
253 244 257 262 266 280 278 282 275 194 203 198 225 156 143 147 164 164 161 160 169 159 156 166 166 157 144 144 140 136 138 134 128 104 104 107 110 107 104 100 97 112 118 111 78 60 67 86 82
322 285 276 268 278 281 268 278 276 267 177 187 239 187 157 159 171 170 164 170 167 161 170 168 167 155 145 148 147 146 141 138 119 121 126 121 118 120 121 126 140 146 151 94 88 78 73 64 60
251 286 320 321 304 272 290 279 288 288 191 212 244 236 165 173 174 180 179 173 177 174 175 170 169 157 153 151 149 149 142 124 127 129 130 127 132 130 133 134 128 113 96 99 94 90 83 76 67
278 269 291 302 284 280 259 276 283 291 284 218 247 259 197 175 174 181 172 185 176 182 176 167 172 156 156 153 149 144 130 128 131 123 140 138 130 130 131 120 113 104 98 95 89 105 101 84 70
277 292 292 265 267 230 244 240 247 257 278 232 238 252 232 177 177 180 190 179 178 189 169 172 160 156 139 143 132 141 135 134 135 139 154 128 130 135 136 133 133 106 96 104 107 102 92 89 83
287 282 282 291 202 216 204 247 245 236 266 280 265 234 227 258 192 181 178 192 176 172 170 162 156 149 147 137 144 133 145 136 137 138 137 138 132 137 147 127 111 109 111 120 116 102 99 88 81
253 265 287 289 222 208 200 221 243 257 242 250 260 220 226 216 224 207 185 178 177 170 169 156 164 148 153 140 138 135 137 137 133 130 145 128 139 154 138 124 117 114 124 127 116 95 104 104 93
220 229 257 298 344 236 214 227 233 218 238 233 242 260 211 202 219 229 192 166 170 179 171 158 166 160 150 148 135 124 133 133 139 138 158 149 149 141 129 122 127 132 148 132 125 126 105 109 108
315 279 274 291 284 303 258 212 213 238 222 228 234 245 217 208 206 211 212 173 175 185 160 163 169 159 144 153 145 142 151 146 140 138 150 154 147 141 127 137 145 161 139 137 131 122 121 109 129
295 316 296 277 280 200 258 207 201 226 215 240 228 255 246 207 211 203 210 182 177 184 175 173 170 160 158 163 160 158 151 150 138 141 145 151 151 137 140 153 158 140 138 134 137 141 137 116 195
283 248 283 293 319 259 279 223 193 221 185 176 292 303 287 261 198 196 201 199 171 172 175 178 161 169 160 166 146 120 112 98 108 143 150 165 153 142 146 153 152 144 147 146 147 151 149 154 196
288 348 282 294 295 270 337 192 185 207 213 171 192 258 290 291 276 201 187 210 178 183 164 171 169 169 166 150 151 159 157 157 170 163 159 155 153 145 147 151 149 149 146 149 153 158 161 137 150
253 338 297 283 224 307 313 62 7 245 192 13 357 355 329 344 325 323 189 188 182 165 176 164 174 166 164 158 172 173 168 165 150 154 154 151 150 146 150 158 152 148 151 154 161 161 153 144 133
353 335 291 252 184 268 196 97 18 20 355 346 348 347 340 347 342 337 319 178 176 166 166 171 173 178 168 165 170 172 176 164 155 157 159 164 159 158 160 161 152 151 151 163 160 160 152 154 129
357 218 45 137 38 220 164 82 25 4 12 351 347 340 345 351 338 338 347 355 266 162 173 179 173 174 176 172 175 175 174 177 175 165 166 166 166 171 175 166 160 161 148 152 149 154 159 160 166
295 320 32 183 169 176 39 106 71 22 1 351 348 348 349 352 345 342 344 341 341 229 186 172 178 177 181 177 175 176 173 186 192 187 168 175 175 175 166 158 151 152 151 152 148 146 152 141 145
327 13 36 282 293 80 105 77 195 15 10 1 354 353 358 353 347 345 341 343 332 303 184 184 170 180 184 181 173 176 165 178 180 188 182 177 174 174 162 159 152 151 149 155 155 155 148 147 154
37 279 9 313 17 115 85 71 348 350 350 357 351 348 352 349 352 343 343 339 332 327 245 175 169 181 186 188 177 170 175 174 173 173 174 172 178 172 165 170 173 166 159 154 153 140 140 145 151
3 14 338 177 19 352 46 22 9 328 346 343 337 343 338 349 350 339 333 335 333 335 327 189 150 163 167 192 168 171 168 172 164 169 168 161 149 162 164 151 148 154 150 141 130 138 146 154 157
71 348 345 16 328 12 217 207 233 283 356 349 337 339 336 344 344 343 335 338 347 341 344 343 288 161 175 178 191 171 163 165 168 160 155 160 166 163 158 149 138 134 132 123 131 141 150 151 162